| time (UTC) | temp F | wind direction | speed knots | gust knots | rain 1hr in | rain 24hr in | rain mn in | humidity % | barometer mb |
| 20260505052503 | 63 | 152 | 0.0 | 0.9 | 0.00 | 0.00 | 0.00 | 63 | 1008.5 |
| 20260505051504 | 63 | 152 | 0.0 | 0.9 | 0.00 | 0.00 | 0.00 | 63 | 1008.5 |
| 20260505051005 | 63 | 152 | 0.0 | 0.9 | 0.00 | 0.00 | 0.00 | 63 | 1008.5 |
| 20260505050503 | 63 | 152 | 0.0 | 0.0 | 0.00 | 0.00 | 0.00 | 62 | 1008.4 |
| 20260505041003 | 64 | 142 | 1.7 | 2.6 | 0.00 | 0.00 | 0.00 | 60 | 1008.1 |
| 20260505035004 | 62 | 140 | 0.0 | 0.9 | 0.00 | 0.00 | 0.00 | 60 | 1008.0 |
| 20260505034003 | 63 | 140 | 0.0 | 2.6 | 0.00 | 0.00 | 0.00 | 59 | 1008.1 |
| 20260505033503 | 63 | 140 | 0.0 | 0.9 | 0.00 | 0.00 | 0.00 | 58 | 1008.1 |
| 20260505032504 | 63 | 140 | 0.0 | 0.0 | 0.00 | 0.00 | 0.00 | 58 | 1008.2 |
| 20260505030004 | 65 | 140 | 0.0 | 0.9 | 0.00 | 0.00 | 0.00 | 55 | 1008.1 |
| 20260505025004 | 65 | 140 | 0.0 | 0.9 | 0.00 | 0.00 | 0.00 | 54 | 1008.1 |
| 20260505024504 | 65 | 140 | 0.0 | 0.0 | 0.00 | 0.00 | 0.00 | 53 | 1008.1 |
| 20260505024004 | 65 | 140 | 0.0 | 0.9 | 0.00 | 0.00 | 0.00 | 53 | 1008.0 |
| 20260505023004 | 65 | 140 | 0.9 | 1.7 | 0.00 | 0.00 | 0.00 | 53 | 1007.9 |
| 20260505022504 | 65 | 143 | 0.9 | 2.6 | 0.00 | 0.00 | 0.00 | 52 | 1007.8 |
| 20260505022004 | 66 | 146 | 0.0 | 2.6 | 0.00 | 0.00 | 0.00 | 52 | 1007.9 |
| 20260505014004 | 67 | 152 | 1.7 | 2.6 | 0.00 | 0.00 | 0.00 | 50 | 1007.7 |
| 20260505013504 | 67 | 161 | 0.9 | 2.6 | 0.00 | 0.00 | 0.00 | 50 | 1007.7 |
| 20260505012504 | 67 | 146 | 1.7 | 2.6 | 0.00 | 0.00 | 0.00 | 49 | 1007.5 |
| 20260505012004 | 68 | 143 | 1.7 | 2.6 | 0.00 | 0.00 | 0.00 | 49 | 1007.5 |
| 20260505011003 | 68 | 151 | 1.7 | 2.6 | 0.00 | 0.00 | 0.00 | 48 | 1007.7 |
| 20260505010504 | 68 | 154 | 0.9 | 2.6 | 0.00 | 0.00 | 0.00 | 48 | 1007.7 |
| 20260505005504 | 68 | 156 | 1.7 | 2.6 | 0.00 | 0.00 | 0.00 | 48 | 1007.5 |
| 20260505004004 | 69 | 161 | 0.9 | 2.6 | 0.00 | 0.00 | 0.00 | 48 | 1007.3 |
| 20260505003504 | 69 | 168 | 1.7 | 4.3 | 0.00 | 0.00 | 0.00 | 47 | 1007.3 |
| 20260505002503 | 69 | 154 | 0.9 | 2.6 | 0.00 | 0.00 | 0.00 | 47 | 1007.2 |
| 20260505002004 | 70 | 156 | 0.9 | 4.3 | 0.00 | 0.00 | 0.00 | 46 | 1007.2 |
| 20260505001004 | 70 | 155 | 0.9 | 5.2 | 0.00 | 0.00 | 0.00 | 45 | 1007.1 |
| 20260505000004 | 70 | 153 | 1.7 | 5.2 | 0.00 | 0.00 | 0.00 | 44 | 1007.1 |
| 20260504235503 | 71 | 155 | 2.6 | 6.1 | 0.00 | 0.00 | 0.00 | 44 | 1007.0 |
| 20260504235004 | 71 | 158 | 1.7 | 5.2 | 0.00 | 0.00 | 0.00 | 43 | 1007.0 |
| 20260504234504 | 71 | 160 | 4.3 | 7.0 | 0.00 | 0.00 | 0.00 | 43 | 1007.0 |
| 20260504234004 | 71 | 143 | 2.6 | 7.0 | 0.00 | 0.00 | 0.00 | 43 | 1007.0 |
| 20260504233003 | 72 | 143 | 4.3 | 6.1 | 0.00 | 0.00 | 0.00 | 42 | 1006.9 |
| 20260504232504 | 72 | 154 | 3.5 | 10.4 | 0.00 | 0.00 | 0.00 | 42 | 1006.9 |
| 20260504232005 | 72 | 153 | 1.7 | 7.8 | 0.00 | 0.00 | 0.00 | 43 | 1006.9 |
| 20260504231504 | 72 | 162 | 2.6 | 7.8 | 0.00 | 0.00 | 0.00 | 42 | 1006.9 |
| 20260504230503 | 73 | 157 | 3.5 | 7.0 | 0.00 | 0.00 | 0.00 | 42 | 1007.0 |
| 20260504230004 | 73 | 165 | 1.7 | 4.3 | 0.00 | 0.00 | 0.00 | 43 | 1007.0 |
| 20260504225504 | 73 | 155 | 1.7 | 7.8 | 0.00 | 0.00 | 0.00 | 42 | 1007.1 |
| 20260504224504 | 73 | 153 | 1.7 | 8.7 | 0.00 | 0.00 | 0.00 | 42 | 1007.1 |
| 20260504221503 | 73 | 148 | 2.6 | 8.7 | 0.00 | 0.00 | 0.00 | 41 | 1007.3 |
| 20260504220504 | 73 | 155 | 5.2 | 10.4 | 0.00 | 0.00 | 0.00 | 40 | 1007.3 |
| 20260504215004 | 74 | 155 | 7.0 | 12.2 | 0.00 | 0.00 | 0.00 | 40 | 1007.3 |
| 20260504214504 | 74 | 159 | 3.5 | 7.8 | 0.00 | 0.00 | 0.00 | 40 | 1007.3 |
| 20260504213003 | 74 | 161 | 3.5 | 13.9 | 0.00 | 0.00 | 0.00 | 40 | 1007.1 |
| 20260504210504 | 74 | 145 | 3.5 | 10.4 | 0.00 | 0.00 | 0.00 | 40 | 1007.2 |
| 20260504204504 | 76 | 172 | 1.7 | 6.1 | 0.00 | 0.00 | 0.00 | 37 | 1007.1 |
| 20260504204004 | 76 | 164 | 2.6 | 8.7 | 0.00 | 0.00 | 0.00 | 37 | 1007.2 |
| 20260504202004 | 77 | 163 | 1.7 | 4.3 | 0.00 | 0.00 | 0.00 | 34 | 1007.5 |
| 20260504201504 | 77 | 156 | 1.7 | 7.0 | 0.00 | 0.00 | 0.00 | 34 | 1007.6 |
| 20260504201003 | 76 | 234 | 1.7 | 2.6 | 0.00 | 0.00 | 0.00 | 36 | 1007.6 |
| 20260504200004 | 76 | 239 | 0.9 | 6.1 | 0.00 | 0.00 | 0.00 | 36 | 1007.9 |
| 20260504195503 | 76 | 150 | 1.7 | 4.3 | 0.00 | 0.00 | 0.00 | 36 | 1007.9 |
| 20260504194503 | 75 | 151 | 4.3 | 10.4 | 0.00 | 0.00 | 0.00 | 36 | 1008.0 |
| 20260504194004 | 75 | 163 | 1.7 | 5.2 | 0.00 | 0.00 | 0.00 | 37 | 1008.1 |
| 20260504192503 | 76 | 146 | 0.9 | 5.2 | 0.00 | 0.00 | 0.00 | 37 | 1008.5 |
| 20260504192004 | 76 | 222 | 0.9 | 4.3 | 0.00 | 0.00 | 0.00 | 37 | 1008.5 |
| 20260504191503 | 75 | 188 | 3.5 | 10.4 | 0.00 | 0.00 | 0.00 | 35 | 1008.7 |
| 20260504190504 | 75 | 151 | 2.6 | 7.0 | 0.00 | 0.00 | 0.00 | 36 | 1008.7 |
| 20260504190004 | 75 | 243 | 4.3 | 7.8 | 0.00 | 0.00 | 0.00 | 35 | 1008.7 |
| 20260504185504 | 75 | 197 | 1.7 | 8.7 | 0.00 | 0.00 | 0.00 | 39 | 1008.9 |
| 20260504185004 | 74 | 157 | 1.7 | 5.2 | 0.00 | 0.00 | 0.00 | 38 | 1009.0 |
| 20260504183504 | 74 | 198 | 1.7 | 7.8 | 0.00 | 0.00 | 0.00 | 40 | 1009.2 |
| 20260504183004 | 74 | 166 | 3.5 | 6.1 | 0.00 | 0.00 | 0.00 | 38 | 1009.2 |
| 20260504180504 | 75 | 117 | 0.9 | 4.3 | 0.00 | 0.00 | 0.00 | 37 | 1009.6 |
| 20260504180003 | 74 | 190 | 0.9 | 2.6 | 0.00 | 0.00 | 0.00 | 42 | 1009.8 |
| 20260504175004 | 72 | 166 | 1.7 | 5.2 | 0.00 | 0.00 | 0.00 | 39 | 1009.8 |
| 20260504174004 | 72 | 175 | 1.7 | 7.8 | 0.00 | 0.00 | 0.00 | 44 | 1010.0 |
| 20260504173003 | 71 | 117 | 0.9 | 11.3 | 0.00 | 0.00 | 0.00 | 43 | 1010.0 |
| 20260504171504 | 69 | 151 | 2.6 | 7.8 | 0.00 | 0.00 | 0.00 | 42 | 1010.3 |
| 20260504170503 | 69 | 148 | 6.1 | 13.0 | 0.00 | 0.00 | 0.00 | 42 | 1010.3 |
| 20260504151004 | 66 | 113 | 0.9 | 4.3 | 0.00 | 0.00 | 0.00 | 42 | 1012.2 |
| 20260504150504 | 66 | 214 | 1.7 | 2.6 | 0.00 | 0.00 | 0.00 | 44 | 1012.3 |
| 20260504130503 | 55 | 149 | 0.0 | 0.9 | 0.00 | 0.00 | 0.00 | 52 | 1013.2 |